Hourly Weather Roundup
Issued by NWS Central Illinois

Home | Current Version | Previous Version | Text Only | Print | Product List | Glossary On
Versions: 1 2 3 4 5 6 7 8 9 10 11 12 13 14 15 16 17 18 19 20 21 22 23 24 25 26 27 28 29 30 31 32 33 34 35 36 37 38 39 40 41 42 43 44 45 46 47 48 49 50
000
NZUS43 KILX 311010
HWRILX

AREA WEATHER ROUNDUP
NATIONAL WEATHER SERVICE, LINCOLN IL
500 AM CDT MON AUG 31 2015


CITY           SKY/WX    TMP DP  RH WIND       PRES   REMARKS
BLOOMINGTON    CLEAR     67  67 100 S3        30.05S FOG
CHAMPAIGN      MOCLDY    67  65  93 S3        30.05R FOG
DANVILLE       FOG       63  63  99 CALM      30.03R VSB 3/4
DECATUR        CLEAR     70  66  87 S5        30.04R
EFFINGHAM      MOCLDY    69  66  92 CALM      30.06S
FLORA          PTCLDY    65  65  98 S3        30.05S FOG
GALESBURG      CLEAR     65  64  96 E3        30.03R FOG
JACKSONVILLE   CLEAR     72  70  93 S5        30.02R FOG
LACON          CLEAR     60  59  96 CALM      30.03R FOG
LAWRENCEVILLE  MOCLDY    65  64  97 S5        30.06R FOG
LITCHFIELD     CLEAR     69  68  95 SE5       30.03S FOG
$$


CITY           SKY/WX    TMP DP  RH WIND       PRES   REMARKS
LINCOLN        CLEAR     66  64  94 CALM      30.03R FOG
MACOMB         FOG       62  62 100 CALM      30.04R VSB 1/2
MATTOON        PTCLDY    71  67  87 S8        30.04R FOG
MT CARMEL AP     N/A     64  63  94 CALM      30.06R FOG
OLNEY-NOBLE AP MOCLDY    64  64 100 S5        30.06R
PARIS          CLEAR     66  65  96 CALM      30.06S FOG
PEORIA         CLEAR     68  64  87 E5        30.03R
PONTIAC        CLEAR     62  62 100 E3        30.04S FOG
RANTOUL        PTCLDY    67  66  96 CALM      30.05S FOG
ROBINSON       PTCLDY    65  64  97 CALM      30.06S FOG
SPRINGFIELD    CLEAR     70  68  93 S3        30.02S
TAYLORVILLE    CLEAR     70  68  94 S5        30.03S FOG
$$

...REGIONAL REPORTS...


CITY           SKY/WX    TMP DP  RH WIND       PRES   REMARKS
CHICAGO O`HARE FOG       62  62 100 CALM      30.04R VSB 1/4
KANKAKEE       FOG       61  61  99 CALM      30.05R VSB 1/2
MOLINE         CLEAR     61  59  93 E3        30.02S FOG
MOUNT STERLING FOG       65  65  99 CALM      30.01R VSB 1/2
MOUNT VERNON   MOCLDY    68  63  83 S3        30.06S
PITTSFIELD     MOCLDY    67  65  94 CALM      30.03R FOG
QUINCY         MOCLDY    70  67  90 SE3       30.01R FOG
ROCKFORD       FOG       59  56  89 CALM      30.06R VSB 1
$$


CITY           SKY/WX    TMP DP  RH WIND       PRES   REMARKS
BURLINGTON     CLEAR     68  67  96 E3        30.01R
CEDAR RAPIDS   CLEAR     60  60 100 E5        30.01S FOG
DES MOINES     PTCLDY    69  65  86 SE6       29.97F
KIRKSVILLE     CLEAR     68  65  90 SE3       30.01R FOG
OTTUMWA        FOG       63  63 100 E5        29.98S VSB 1/2
ST LOUIS       PTCLDY    75  70  84 S6        30.03R
$$


CITY           SKY/WX    TMP DP  RH WIND       PRES   REMARKS
TERRE HAUTE    FOG       63  63 100 CALM      30.05S VSB 1/4
EVANSVILLE     CLEAR     67  65  93 CALM      30.08R FOG
INDIANAPOLIS   MOCLDY    68  65  90 S3        30.05S
LAFAYETTE      FOG       64  64 100 CALM      30.05R VSB 1/2
MADISON        FOG       58  57  97 CALM      30.03S VSB 1/2
MILWAUKEE      FOG       60  58  92 SW5       30.04R VSB 3/4
$$





USA.gov is the U.S. government's official web portal to all federal, state and local government web resources and services.